Regional Weather Roundup
Issued by NWS

Home | Current Version | Previous Version | Text Only | Print | Product List | Glossary Off
Versions: 1 2 3 4 5 6 7 8 9 10 11 12 13 14 15 16 17 18 19 20 21 22 23 24 25 26 27 28 29 30 31 32 33 34 35 36 37 38 39 40 41 42 43 44 45 46 47 48 49 50

000
ASUS43 KIND 152209
RWRIN

WEATHER ROUNDUP FOR INDIANA
NATIONAL WEATHER SERVICE INDIANAPOLIS IN
500 PM EST FRI DEC 15 2017

NOTE: "FAIR" INDICATES FEW OR NO CLOUDS BELOW 12,000 FEET WITH NO
SIGNIFICANT WEATHER AND/OR OBSTRUCTIONS TO VISIBILITY.

* - STATION DOES NOT REPORT WEATHER SUCH AS PRECIPITATION OR FOG.

+ - STATION NOT QUALITY CONTROLLED BY THE NATIONAL WEATHER SERVICE.
    USE DATA WITH CAUTION...ESPECIALLY DEWPOINT AND RELATIVE
    HUMIDITY OBSERVATIONS.

INZ001>003-010>013-019-020-152300-
NORTHWEST INDIANA

CITY           SKY/WX    TMP DP  RH WIND       PRES   REMARKS
GARY /AIRPORT/ CLOUDY    34  23  64 SW14G25   29.93R WCI  24
KNOX *+        CLOUDY    32  19  59 W10       29.92S WCI  24
LA PORTE +     CLOUDY    30  19  64 W7        29.92R WCI  23
MICHIGAN CITY+ CLOUDY    32  21  64 SW8       29.92R WCI  25
MONTICELLO +   CLOUDY    32  16  50 W13G18    29.96S WCI  23
RENSSELAER +   CLOUDY    34  12  40 SW10      29.95S WCI  26
VALPARAISO     MOCLDY    32  20  61 W12       29.92S WCI  23

$$

LMZ046-743>745-152300-
SOUTHERN LAKE MICHIGAN

STATION/POSITION TIME  TEMP    WIND        PRES    WAVE
                       AIR SEA DIR/SP/G            HT
                 (UTC) (F)     (DEG/KT/KT) (MB)    (FT)
BURNS HARBOR     2140   33     240/ 15/ 19 1013.5R
MICHIGAN CITY    2140   32     240/ 24/ 28   N/A

$$

INZ004-005-014>016-021>024-152300-
NORTH CENTRAL INDIANA

CITY           SKY/WX    TMP DP  RH WIND       PRES   REMARKS
ELKHART        CLOUDY    28  18  64 SW12      29.88F WCI  18
GOSHEN         CLOUDY    28  16  60 W10       29.89F WCI  19
LOGANSPORT +   CLOUDY    32  18  55 W9        29.96S WCI  24
PERU/GRISSOM   CLOUDY    32  17  54 W10       29.95R WCI  23
ROCHESTER +    CLOUDY    32  19  59 W8        29.93S WCI  25
SOUTH BEND     CLOUDY    29  21  72 W12       29.90S WCI  19
WARSAW +       CLOUDY    28  18  64 W8G16     29.91F WCI  20

$$

INZ006>009-017-018-025>027-152300-
NORTHEAST INDIANA

CITY           SKY/WX    TMP DP  RH WIND       PRES   REMARKS
AUBURN +       MOCLDY    28  16  59 SW7G16    29.91S WCI  21
FORT WAYNE     MOCLDY    28  19  69 W15       29.94R WCI  16
HUNTINGTON +   CLOUDY    29  15  56 W10       29.94S WCI  20
KENDALLVILLE + CLOUDY    26  17  66 W12       29.89R WCI  16

$$

INZ028-029-035-036-043>045-051>053-152300-
WEST CENTRAL INDIANA

CITY           SKY/WX    TMP DP  RH WIND       PRES   REMARKS
CRAWFORDSVL +  MOCLDY    30  17  58 W10       30.00S WCI  21
GREENCASTLE +  PTCLDY    32  19  59 W5        30.03R WCI  27
LAFAYETTE      CLOUDY    32  18  56 W8        29.99R WCI  25
TERRE HAUTE    CLEAR     34  19  54 W9        30.05R WCI  27

$$

INZ030>032-037>040-046>048-054>057-064-065-152300-
CENTRAL INDIANA

CITY           SKY/WX    TMP DP  RH WIND       PRES   REMARKS
COLUMBUS       MOCLDY    32  19  59 W12       30.04R WCI  23
FRANKFORT +    MOCLDY    34  19  53 W12       29.99S WCI  25
GREENWOOD *+   MOCLDY    34  22  60 W8        30.02R WCI  27
INDIANAPOLIS   PTCLDY    30  18  60 W12       30.02R WCI  20
-EAGLE CREEK   PTCLDY    31  17  56 W9        30.01R WCI  23
KOKOMO +       CLOUDY    32  18  56 W15       29.97R WCI  22
MARION +       CLOUDY    31  17  56 W14G21    29.97R WCI  20
MT COMFORT *+  PTCLDY    30  21  69 W15       30.01R WCI  19
SHELBYVILLE    MOCLDY    32  19  58 W15       30.01R WCI  22
ZIONSVILLE +   PTCLDY    30  16  56 W12       29.99S WCI  20

$$

INZ033-034-041-042-049-050-058-059-152300-
EAST CENTRAL INDIANA

CITY           SKY/WX    TMP DP  RH WIND       PRES   REMARKS
MUNCIE         MOCLDY    32  15  49 W14       29.97R WCI  22
RICHMOND +     CLOUDY    28  21  74 W13G20    29.99R WCI  18

$$

INZ060-061-067>069-081>083-085>088-152300-
SOUTHWEST INDIANA

CITY           SKY/WX    TMP DP  RH WIND       PRES   REMARKS
EVANSVILLE     CLOUDY    39  25  57 SW8       30.10R WCI  33
HUNTINGBURG +  CLOUDY    37  25  61 SW8       30.09R WCI  31
WASHINGTON +   CLOUDY    36  24  61 W5        30.07R WCI  32

$$

INZ062-063-066-070>080-084-089>092-152300-
SOUTH CENTRAL AND SOUTHEAST INDIANA

CITY           SKY/WX    TMP DP  RH WIND       PRES   REMARKS
BEDFORD +      CLOUDY    34  23  64 CALM      30.05R
BLOOMINGTON    PTCLDY    33  21  61 W7        30.03S WCI  27
MADISON *+     CLOUDY    32  21  64 SW7       30.06S WCI  26
NORTH VERNON + CLOUDY    30  21  69 SW10      30.05R WCI  21
SEYMOUR +      CLOUDY    34  21  60 W8        30.06R WCI  27

$$





USA.gov is the U.S. government's official web portal to all federal, state and local government web resources and services.